Location: Newark
(40.9833°N, 0.0333°W)
Time: 22:54:13
(UTC+00:00)

Transit 4A - Pass Details

Date: 06 November 2020
Orbit: 862 x 982 km, 66.8° (Epoch: 29 November)

Event Time Altitude Azimuth Distance (km) Brightness Sun altitude
Rises 22:07:43 0° 329° (NNW) 3,690 11.5 -57.8°
Enters shadow 22:08:07 - 328° (NNW) 3,540 11.4 -57.8°
Reaches altitude 10° 22:10:19 10° 328° (NNW) 2,732 - -58.1°
Maximum altitude 22:16:42 77° 243° (WSW) 990 - -59.0°
Drops below altitude 10° 22:22:55 10° 158° (SSE) 2,656 - -59.8°
Sets 22:25:24 0° 157° (SSE) 3,580 - -60.1°
